User: anonymous   Login
Location: Ch?enovice
(49.7164°N, 15.2160°E)
Time: 20:28:25
(UTC+00:00)
Language:

Cosmos 1242 Rocket - Orbit

View from above orbital plane
View from above orbital plane
View from above satellite
View from above satellite

Ground track
Ground track

The orbit data is extracted from the following two-line orbital elements,

1 12155U 81008B   24205.56265691  .00222006  17190-4  66362-3 0  9994
2 12155  81.1381 185.3565 0005543  90.9753 269.2151 15.92261262359279
Epoch (UTC): 23 July 2024 13:30:13
Eccentricity: 0.0005543
inclination: 81.1381°
perigee height: 292 km
apogee height: 299 km
right ascension of ascending node: 185.3565°
argument of perigee: 90.9753°
revolutions per day: 15.92261262
mean anomaly at epoch: 269.2151°
orbit number at epoch: 35927

The dashed part of the orbit path shows where the satellite is in the earth's shadow,  

DLR